Weather History for Bennington, VT

Change the Weather History Date:

Sunday, October 28, 2012

  Actual Average Record
Temperature  
Mean Temperature 55 °F 44 °F  
Max Temperature 59 °F 54 °F 73 °F (2014)
Min Temperature 50 °F 33 °F 21 °F (1999)
Degree Days  
Heating Degree Days 10 21  
Month to date heating degree days 367 477  
Since 1 July heating degree days 582 755  
Cooling Degree Days 0 0  
Month to date cooling degree days 2 0  
Year to date cooling degree days 476 311  
Growing Degree Days 4 (Base 50)    
Moisture  
Dew Point 42 °F    
Average Humidity 66    
Maximum Humidity 89    
Minimum Humidity 43    
Precipitation  
Precipitation 0.00 in 0.10 in 1.44 in (2006)
Month to date precipitation 3.45 3.40  
Year to date precipitation 28.06 34.51  
Sea Level Pressure  
Sea Level Pressure 29.91 in    
Wind  
Wind Speed 4 mph (ENE)    
Max Wind Speed 14 mph    
Max Gust Speed 20 mph    
Visibility 10 miles    
Events      
T = Trace of Precipitation, MM = Missing Value Source: NWS Daily Summary

Daily Weather History Graph

Daily Weather History Graph

Search for Another Location

Airport:

Trip Planner

Search our weather history database for the weather conditions in past years. The results will help you decide how hot, cold, wet, or windy it might be!

Date:

Astronomy

Oct. 28, 2012 Rise Set
Actual Time 7:22 AM EDT 5:49 PM EDT
Civil Twilight 6:53 AM EDT 6:19 PM EDT
Nautical Twilight 6:20 AM EDT 6:52 PM EDT
Astronomical Twilight 5:47 AM EDT 7:25 PM EDT
Moon 5:06 PM EDT (10/28) 6:12 AM EDT (10/28)
Length of Visible Light 11h 25m
Length of Day
10h 27m
Waxing Gibbous, 99% of the Moon is Illuminated
Oct 28
Waxing Gibbous
Oct 29
Full
Nov 6
Last Quarter
Nov 13
New
Nov 20
First Quarter

Hourly Weather History & Observations

Time (EDT) Temp. Dew Point Humidity Pressure Visibility Wind Dir Wind Speed Gust Speed Precip Events Conditions
12:54 AM 52.0 °F 48.0 °F 86% 29.99 in 10.0 mi Calm Calm - N/A   Clear
1:54 AM 52.0 °F 48.9 °F 89% 29.98 in 10.0 mi Calm Calm - N/A   Partly Cloudy
2:54 AM 55.0 °F 50.0 °F 83% 29.97 in 10.0 mi Calm Calm - N/A   Overcast
3:54 AM 55.9 °F 48.9 °F 77% 29.96 in 10.0 mi Calm Calm - N/A   Mostly Cloudy
4:54 AM 54.0 °F 43.0 °F 66% 29.95 in 10.0 mi Calm Calm - N/A   Partly Cloudy
6:54 AM 54.0 °F 36.0 °F 51% 29.96 in 10.0 mi NNE 4.6 mph - N/A   Clear
7:54 AM 54.0 °F 34.0 °F 47% 29.97 in 10.0 mi Variable 3.5 mph - N/A   Clear
8:54 AM 53.1 °F 37.0 °F 55% 29.99 in 10.0 mi Calm Calm - N/A   Clear
9:54 AM 55.9 °F 37.0 °F 49% 29.99 in 10.0 mi Calm Calm - N/A   Clear
10:54 AM 57.0 °F 36.0 °F 45% 29.97 in 10.0 mi Calm Calm - N/A   Clear
11:54 AM 57.0 °F 39.9 °F 53% 29.95 in 10.0 mi ESE 10.4 mph - N/A   Clear
1:54 PM 57.9 °F 43.0 °F 58% 29.91 in 10.0 mi ESE 8.1 mph - N/A   Mostly Cloudy
2:54 PM 57.0 °F 43.0 °F 59% 29.88 in 10.0 mi ENE 6.9 mph 17.3 mph N/A   Mostly Cloudy
3:54 PM 55.9 °F 43.0 °F 62% 29.88 in 10.0 mi Variable 4.6 mph - N/A   Overcast
4:54 PM 55.0 °F 43.0 °F 64% 29.87 in 10.0 mi NNE 4.6 mph - N/A   Overcast
5:37 PM 53.6 °F 42.8 °F 67% 29.88 in 10.0 mi NE 4.6 mph - N/A   Overcast
5:54 PM 54.0 °F 43.0 °F 66% 29.88 in 10.0 mi Variable 4.6 mph - N/A   Overcast
6:54 PM 54.0 °F 44.1 °F 69% 29.88 in 10.0 mi NE 5.8 mph - N/A   Overcast
7:54 PM 54.0 °F 44.1 °F 69% 29.87 in 10.0 mi East 5.8 mph - N/A   Overcast
9:54 PM 53.1 °F 44.1 °F 71% 29.85 in 10.0 mi East 4.6 mph - N/A   Overcast
10:38 PM 53.6 °F 42.8 °F 67% 29.83 in 10.0 mi East 3.5 mph - N/A   Mostly Cloudy
10:54 PM 53.1 °F 42.1 °F 66% 29.83 in 10.0 mi Variable 5.8 mph - N/A   Overcast
11:03 PM 53.6 °F 42.8 °F 67% 29.83 in 10.0 mi SE 3.5 mph - N/A   Overcast
11:54 PM 52.0 °F 43.0 °F 71% 29.80 in 10.0 mi Variable 5.8 mph - N/A   Overcast